Weather History for Erzurum, Turkey

Change the Weather History Date:

Friday, August 23, 2013

  Actual Average Record
Temperature  
Mean Temperature 71 °F -  
Max Temperature 86 °F 74 °F 89 °F (2014)
Min Temperature 56 °F 47 °F 39 °F (1996)
Cooling Degree Days 6    
Growing Degree Days 21 (Base 50)    
Moisture  
Dew Point 42 °F    
Average Humidity 39    
Maximum Humidity 67    
Minimum Humidity 8    
Precipitation  
Precipitation 0.00 in 0.03 in - ()
Sea Level Pressure  
Sea Level Pressure 30.05 in    
Wind  
Wind Speed 12 mph ()    
Max Wind Speed 21 mph    
Max Gust Speed -    
Visibility 7.0 miles    
Events      
Averages and records for this station are not official NWS values.
T = Trace of Precipitation, MM = Missing Value Source: Averaged Metar Reports

Daily Weather History Graph

Daily Weather History Graph

Search for Another Location

Airport:

Trip Planner

Search our weather history database for the weather conditions in past years. The results will help you decide how hot, cold, wet, or windy it might be!

Date:

Astronomy

Aug. 23, 2013 Rise Set
Actual Time 5:34 AM EEST 7:00 PM EEST
Civil Twilight 5:06 AM EEST 7:28 PM EEST
Nautical Twilight 4:32 AM EEST 8:02 PM EEST
Astronomical Twilight 3:55 AM EEST 8:38 PM EEST
Moon 8:06 PM EEST (8/23) 8:05 AM EEST (8/23)
Length of Visible Light 14h 22m
Length of Day
13h 26m
Waning Gibbous, 93% of the Moon is Illuminated
Aug 23
Waning Gibbous
Aug 28
Last Quarter
Sep 5
New
Sep 12
First Quarter
Sep 19
Full

Hourly Weather History & Observations

Time (EEST) Temp. Dew Point Humidity Pressure Visibility Wind Dir Wind Speed Gust Speed Precip Events Conditions
12:20 AM 64.4 °F 44.6 °F 49% 30.09 in - East 13.8 mph - N/A   Clear
12:50 AM 62.6 °F 44.6 °F 52% 30.09 in - East 15.0 mph - N/A   Clear
1:20 AM 62.6 °F 44.6 °F 52% 30.09 in - East 15.0 mph - N/A   Clear
1:50 AM 60.8 °F 44.6 °F 55% 30.09 in - ENE 13.8 mph - N/A   Clear
2:20 AM 60.8 °F 44.6 °F 55% 30.09 in - ENE 16.1 mph - N/A   Clear
2:50 AM 60.8 °F 44.6 °F 55% 30.09 in - East 16.1 mph - N/A   Clear
3:00 AM 61 °F 45 °F 45%  in 12 mi East 16.1 mph - -  
3:20 AM 59.0 °F 44.6 °F 59% 30.09 in - East 16.1 mph - N/A   Clear
3:50 AM 59.0 °F 44.6 °F 59% 30.09 in - East 15.0 mph - N/A   Clear
4:20 AM 59.0 °F 46.4 °F 63% 30.09 in - East 17.3 mph - N/A   Clear
4:50 AM 59.0 °F 44.6 °F 59% 30.09 in - ENE 17.3 mph - N/A   Clear
5:20 AM 57.2 °F 44.6 °F 63% 30.09 in - East 16.1 mph - N/A   Clear
5:50 AM 57.2 °F 46.4 °F 67% 30.09 in - ENE 15.0 mph - N/A   Clear
6:20 AM 57.2 °F 46.4 °F 67% 30.09 in - East 9.2 mph - N/A   Clear
6:50 AM 60.8 °F 46.4 °F 59% 30.09 in - East 15.0 mph - N/A   Clear
7:20 AM 62.6 °F 46.4 °F 55% 30.09 in - East 18.4 mph - N/A   Clear
7:50 AM 62.6 °F 46.4 °F 55% 30.09 in - East 18.4 mph - N/A   Clear
8:20 AM 64.4 °F 46.4 °F 52% 30.09 in - East 20.7 mph - N/A   Clear
8:50 AM 66.2 °F 46.4 °F 49% 30.09 in - East 19.6 mph - N/A   Clear
9:00 AM 67 °F 46 °F 36%  in 12 mi East 19.6 mph - -  
9:20 AM 68.0 °F 46.4 °F 46% 30.09 in - East 19.6 mph - N/A   Clear
9:50 AM 69.8 °F 46.4 °F 43% 30.09 in 6.2 mi East 20.7 mph - N/A   Partly Cloudy
10:20 AM 71.6 °F 48.2 °F 43% 30.09 in 6.2 mi East 17.3 mph - N/A   Partly Cloudy
10:50 AM 73.4 °F 46.4 °F 38% 30.09 in 6.2 mi East 18.4 mph - N/A   Partly Cloudy
11:20 AM 75.2 °F 46.4 °F 36% 30.06 in 6.2 mi ENE 16.1 mph - N/A   Partly Cloudy
11:50 AM 77.0 °F 46.4 °F 34% 30.06 in 6.2 mi ENE 15.0 mph - N/A   Partly Cloudy
12:20 PM 77.0 °F 46.4 °F 34% 30.06 in 6.2 mi East 15.0 mph - N/A   Partly Cloudy
12:50 PM 80.6 °F 44.6 °F 28% 30.04 in 6.2 mi ENE 12.7 mph - N/A   Partly Cloudy
1:20 PM 80.6 °F 44.6 °F 28% 30.04 in 6.2 mi ENE 13.8 mph - N/A   Scattered Clouds
1:50 PM 80.6 °F 42.8 °F 26% 30.04 in 6.2 mi East 8.1 mph - N/A   Scattered Clouds
2:20 PM 84.2 °F 35.6 °F 18% 30.01 in 6.2 mi South 4.6 mph - N/A   Scattered Clouds
2:50 PM 86.0 °F 37.4 °F 18% 30.01 in 6.2 mi Variable 5.8 mph - N/A   Scattered Clouds
3:00 PM 85 °F 33 °F 8%  in 12 mi SW 5.8 mph - -   Partly Cloudy
3:20 PM 82.4 °F 35.6 °F 19% 30.01 in 6.2 mi SSW 8.1 mph - N/A   Scattered Clouds
3:50 PM 82.4 °F 35.6 °F 19% 30.01 in 6.2 mi WSW 6.9 mph - N/A   Scattered Clouds
4:20 PM 82.4 °F 35.6 °F 19% 30.01 in 6.2 mi SW 5.8 mph - N/A   Scattered Clouds
4:50 PM 82.4 °F 37.4 °F 20% 30.01 in 5.6 mi South 4.6 mph - N/A   Scattered Clouds
5:20 PM 80.6 °F 35.6 °F 20% 29.98 in 6.2 mi SW 8.1 mph - N/A   Scattered Clouds
5:50 PM 82.4 °F 35.6 °F 19% 29.98 in 6.2 mi Variable 6.9 mph - N/A   Scattered Clouds
6:20 PM 80.6 °F 33.8 °F 18% 29.98 in 6.2 mi SW 6.9 mph - N/A   Scattered Clouds
6:50 PM 77.0 °F 35.6 °F 22% 29.98 in 6.2 mi SW 4.6 mph - N/A   Scattered Clouds
7:20 PM 75.2 °F 35.6 °F 24% 30.01 in 6.2 mi SSW 6.9 mph - N/A   Scattered Clouds
7:50 PM 71.6 °F 35.6 °F 27% 30.01 in 6.2 mi SSW 5.8 mph - N/A   Scattered Clouds
8:20 PM 69.8 °F 37.4 °F 31% 30.01 in 6.2 mi South 5.8 mph - N/A   Partly Cloudy
8:50 PM 69.8 °F 37.4 °F 31% 30.01 in 6.2 mi South 4.6 mph - N/A   Partly Cloudy
9:00 PM 70 °F 36 °F 18%  in 12 mi South 4.6 mph - -   Scattered Clouds
9:20 PM 69.8 °F 35.6 °F 28% 30.01 in 6.2 mi South 5.8 mph - N/A   Partly Cloudy
9:50 PM 69.8 °F 37.4 °F 31% 30.01 in - South 4.6 mph - N/A   Clear
10:20 PM 68.0 °F 35.6 °F 30% 30.01 in - South 4.6 mph - N/A   Clear
10:50 PM 60.8 °F 39.2 °F 45% 30.04 in - Variable 2.3 mph - N/A   Clear
11:20 PM 60.8 °F 39.2 °F 45% 30.04 in 6.2 mi East 5.8 mph - N/A   Partly Cloudy
11:50 PM 59.0 °F 41.0 °F 51% 30.04 in 6.2 mi ESE 5.8 mph - N/A   Partly Cloudy